Wind_Speed
13 11 11 13 14 17 13 9 8 6 9 8 6 7 8 9 12 7 9 12 12 9 5 2 3 6 7 11 12 12 13 18 18 18 19 21 21 22 24 21 21 19 21
10 11 13 14 14 10 10 7 4 6 9 4 5 5 6 7 9 7 7 10 8 9 6 6 6 7 9 12 13 10 10 15 18 18 19 19 20 19 21 22 19 19 21
10 13 15 13 11 7 9 5 4 6 6 4 5 4 5 7 8 7 6 7 7 5 3 5 5 7 8 11 11 12 13 16 17 18 17 18 22 20 24 23 17 20 20
10 11 8 6 6 9 9 6 6 6 3 6 3 3 3 4 6 5 4 5 4 2 4 6 6 9 13 13 13 14 15 17 17 18 17 19 22 20 20 23 22 21 21
9 10 10 11 11 10 8 6 5 5 4 7 4 2 2 4 1 4 5 2 2 2 9 10 7 7 13 14 15 14 15 19 21 20 18 17 20 21 17 18 19 22 17
10 11 12 7 6 6 5 5 4 4 5 8 5 3 4 3 3 5 9 6 6 6 11 12 7 4 9 15 14 17 23 25 23 21 18 18 20 19 18 23 23 10 15
10 10 5 4 3 0 3 4 5 5 8 10 6 4 4 1 6 5 5 5 10 8 8 8 9 6 6 14 16 18 22 25 23 23 20 22 18 17 18 21 17 18 22
8 5 4 2 3 2 5 5 7 6 9 11 7 5 3 1 4 7 7 8 11 15 12 12 10 10 10 15 20 20 19 21 22 19 18 23 19 11 24 21 21 23 20
5 4 4 2 2 4 5 4 6 8 9 12 10 7 4 2 8 9 8 8 7 11 15 14 15 15 19 21 22 21 19 19 19 21 22 22 19 28 30 25 22 22 18
2 4 5 5 1 2 3 3 6 9 11 13 13 10 5 9 10 11 9 9 7 7 10 15 20 28 32 30 28 23 21 23 25 26 24 29 33 31 28 24 20 20 22
4 5 5 6 5 0 5 5 4 9 14 13 16 13 8 10 11 9 9 8 9 5 7 14 18 22 26 29 31 26 22 22 25 30 31 29 28 21 18 23 24 21 18
7 6 6 6 8 6 4 3 4 8 15 16 17 15 11 9 11 9 8 10 11 11 11 17 21 20 19 19 18 20 24 23 23 24 27 24 23 26 25 22 21 19 17
7 5 5 7 11 8 5 3 6 10 14 18 18 18 13 10 8 5 8 10 11 12 14 16 18 20 16 15 15 18 23 24 24 24 24 25 25 24 21 18 16 15 12
6 6 6 8 9 8 9 8 7 12 13 17 19 19 13 10 6 9 13 13 13 18 18 17 18 18 16 14 17 19 22 23 23 23 22 21 20 18 16 16 15 12 9
5 8 9 10 9 13 14 13 12 13 16 19 19 17 14 12 10 13 15 17 17 17 19 20 22 22 21 19 17 15 14 16 16 17 18 17 15 15 15 13 11 8 6
6 7 9 12 12 14 18 16 15 17 17 19 18 15 16 17 16 17 18 17 17 19 19 20 19 20 20 18 16 14 14 13 13 12 12 13 13 12 11 9 6 3 4
6 6 9 11 14 15 16 19 19 18 16 16 16 16 16 16 20 19 19 18 17 16 13 13 13 13 13 12 10 12 12 11 12 12 12 11 10 9 7 5 5 5 5
9 6 8 10 13 14 14 15 16 18 18 18 19 19 19 19 21 19 17 16 16 14 12 10 10 10 12 14 14 13 12 10 10 10 9 8 7 6 7 7 7 7 6
13 12 9 11 13 14 13 13 14 14 15 14 15 17 18 17 18 16 14 13 12 12 12 11 11 12 14 14 13 11 8 6 6 5 4 5 5 6 6 7 9 10 10
13 12 13 12 13 13 14 13 12 12 11 11 11 12 14 15 15 14 13 11 10 9 8 8 9 10 12 14 12 10 11 8 5 4 3 5 6 8 8 9 10 12 13
16 14 13 13 13 14 15 14 13 13 11 9 8 8 7 7 6 7 7 7 6 6 5 5 7 8 9 10 13 11 11 8 6 7 8 7 7 9 11 12 14 17 18
15 18 17 16 16 16 17 18 18 17 16 15 13 11 9 8 7 6 5 5 6 5 4 3 3 4 6 9 10 11 13 14 14 14 13 13 13 15 16 17 17 19 21
16 15 16 18 19 18 17 18 19 20 20 20 19 18 17 16 15 14 14 13 13 12 12 12 11 11 11 12 13 15 16 17 19 18 18 19 20 20 21 21 21 22 25
22 20 18 17 16 17 17 19 20 20 20 21 22 22 21 21 21 21 21 21 19 19 18 17 17 19 19 19 20 20 20 23 24 24 25 25 25 26 26 25 25 24 24
27 26 24 21 19 19 20 20 20 21 21 21 21 22 24 24 23 24 25 25 25 24 24 24 24 25 26 26 26 27 27 28 29 30 30 31 31 32 32 31 30 30 30
32 30 28 26 25 25 25 25 25 25 24 23 23 24 24 23 24 26 27 27 27 28 29 29 29 30 31 31 31 31 31 31 31 32 33 32 31 32 34 34 34 33 31
Wind_Direction
287 293 297 297 298 302 293 286 281 294 313 291 269 267 289 313 319 285 326 323 355 303 261 155 144 151 141 160 176 171 175 180 188 194 193 190 191 190 190 188 191 188 191
292 299 296 297 303 300 297 287 292 312 317 276 248 279 297 306 313 327 339 351 333 320 256 213 204 170 164 169 165 183 182 184 180 179 181 182 186 188 192 190 190 188 184
303 300 298 298 297 278 301 293 301 309 308 231 244 279 302 302 330 330 334 326 322 319 223 200 203 189 190 167 181 183 182 176 175 182 176 176 181 171 191 156 176 193 192
307 313 313 303 289 283 294 279 269 280 282 208 217 290 281 323 327 340 318 334 297 314 156 168 158 151 173 170 161 159 166 168 174 176 174 177 180 173 164 168 185 180 177
310 312 308 307 297 292 282 261 255 253 231 196 216 241 330 336 16 25 345 39 80 124 137 118 123 139 161 154 154 150 154 160 154 152 156 165 176 179 181 170 182 190 191
322 321 318 318 319 304 266 251 227 228 191 183 192 180 2 89 108 84 57 84 74 91 116 100 78 168 166 161 157 151 153 148 141 141 143 156 164 176 183 193 179 189 169
329 327 321 342 351 338 144 154 178 204 180 184 167 173 83 19 78 113 75 70 66 84 104 97 101 125 158 176 176 163 161 153 147 150 152 160 166 164 176 187 184 160 152
339 12 15 39 45 172 160 169 173 181 180 183 169 170 108 38 82 146 92 99 74 73 104 99 85 116 124 155 157 163 164 158 153 163 162 152 149 139 154 162 155 152 157
347 26 4 355 67 114 130 160 172 189 181 187 180 168 132 92 102 133 125 122 87 72 83 87 83 105 115 129 140 157 156 154 162 160 153 154 152 137 136 136 145 156 165
4 51 20 24 44 172 135 140 181 191 179 181 173 169 133 127 114 121 138 135 117 90 93 99 97 102 106 110 120 124 134 148 152 154 155 146 143 143 142 151 161 159 140
57 54 45 51 23 130 169 142 151 172 178 168 168 166 149 125 118 132 127 147 150 128 107 117 123 121 110 109 112 111 119 134 142 146 143 141 139 141 141 141 134 132 134
63 57 46 39 33 68 114 172 188 177 178 166 164 167 153 141 126 125 130 119 129 114 135 138 136 134 125 111 119 135 134 136 144 144 137 141 139 135 137 138 145 138 128
71 65 59 61 54 55 52 76 134 158 158 164 162 164 152 139 140 137 145 120 110 120 134 136 141 149 141 129 123 136 145 150 148 144 143 141 139 142 148 144 134 130 131
91 96 87 90 74 55 56 77 133 152 160 155 156 160 151 148 138 122 135 126 117 113 126 135 145 146 148 145 143 142 141 138 135 135 140 146 152 156 142 141 136 137 131
93 108 108 108 96 78 68 87 106 123 138 144 149 149 139 140 131 130 133 130 128 124 125 124 124 127 130 132 136 135 134 137 139 144 148 146 148 152 151 156 151 144 156
109 115 118 116 118 96 81 87 100 116 130 135 142 147 146 141 138 137 132 132 133 129 128 128 131 136 141 142 142 141 138 140 143 143 142 144 151 158 161 168 179 180 190
135 125 131 127 131 116 99 91 89 107 111 137 142 145 144 144 134 130 131 132 134 131 131 130 131 132 133 136 146 151 148 152 151 148 152 155 161 168 178 209 237 230 240
153 149 143 139 145 139 122 107 104 105 109 114 121 120 123 127 135 125 129 131 132 130 131 135 140 144 142 141 141 144 144 142 143 155 166 177 191 207 218 238 252 269 279
163 165 160 158 154 159 148 131 117 112 116 125 130 130 132 134 134 132 130 130 135 140 145 149 147 147 153 151 147 145 147 154 157 167 185 207 223 241 262 276 272 274 278
190 174 168 169 172 170 172 166 151 135 128 125 123 128 135 140 144 144 143 142 142 144 145 149 153 173 186 188 189 184 175 163 156 177 214 235 241 249 253 255 261 269 277
202 195 188 178 186 187 187 190 190 182 179 173 165 157 150 141 141 146 151 154 157 166 176 190 205 193 188 209 218 214 210 219 258 274 270 286 290 284 288 287 280 281 286
211 209 207 206 199 201 202 201 203 203 202 209 214 218 213 204 204 201 206 209 207 196 198 212 210 208 226 233 230 228 232 247 261 267 277 287 285 279 277 283 286 282 283
210 210 215 218 223 220 216 215 213 216 217 216 221 226 230 234 233 235 239 239 237 238 233 230 234 235 232 232 235 241 247 251 255 261 264 267 274 280 282 283 282 283 282
216 218 216 214 217 222 231 233 233 229 226 226 223 225 232 238 240 241 242 244 242 240 240 243 244 245 245 246 247 248 248 251 254 258 263 268 270 271 273 275 275 273 275
221 222 226 229 230 232 230 231 236 242 244 243 240 236 232 229 236 244 245 245 246 248 249 247 245 247 250 252 254 256 257 256 259 261 261 262 265 271 275 278 280 284 288
215 220 226 228 230 237 242 242 240 239 240 247 253 256 253 245 243 243 242 244 246 248 247 247 250 251 253 255 261 263 263 263 263 263 266 273 280 283 285 288 289 289 289
Height
5712 5711 5710 5710 5709 5707 5705 5704 5703 5702 5701 5699 5698 5696 5696 5694 5692 5690 5688 5684 5683 5681 5680 5679 5678 5679 5679 5681 5684 5687 5691 5694 5698 5703 5708 5711 5716 5720 5726 5731 5736 5741 5746
5708 5708 5706 5705 5704 5702 5701 5700 5700 5698 5698 5697 5696 5695 5694 5693 5692 5689 5687 5684 5682 5681 5679 5678 5679 5679 5681 5683 5685 5688 5691 5694 5697 5701 5707 5712 5717 5722 5726 5731 5736 5740 5744
5705 5705 5703 5701 5700 5699 5698 5697 5697 5696 5696 5695 5695 5695 5693 5693 5691 5688 5686 5683 5682 5680 5678 5677 5678 5678 5681 5683 5685 5688 5691 5694 5698 5702 5706 5713 5717 5720 5724 5727 5732 5740 5743
5703 5701 5699 5698 5696 5695 5695 5695 5695 5695 5695 5693 5695 5694 5693 5692 5690 5687 5685 5682 5680 5679 5678 5677 5677 5678 5680 5683 5686 5689 5692 5695 5699 5703 5708 5714 5717 5720 5724 5731 5736 5740 5745
5701 5699 5698 5696 5694 5693 5693 5692 5693 5693 5693 5692 5694 5693 5693 5692 5689 5689 5685 5683 5682 5679 5678 5678 5679 5680 5682 5685 5688 5690 5693 5697 5701 5705 5709 5715 5719 5723 5727 5730 5737 5741 5744
5699 5697 5695 5693 5692 5691 5690 5690 5690 5691 5691 5693 5694 5693 5693 5692 5690 5689 5687 5685 5683 5681 5680 5681 5681 5681 5683 5686 5689 5692 5694 5698 5702 5707 5710 5716 5720 5724 5728 5733 5738 5741 5744
5697 5695 5694 5692 5691 5690 5689 5689 5690 5690 5691 5693 5694 5694 5694 5693 5691 5690 5690 5689 5687 5685 5683 5683 5682 5682 5682 5685 5689 5693 5696 5700 5703 5707 5711 5716 5721 5725 5730 5734 5740 5742 5747
5696 5695 5693 5692 5691 5690 5689 5689 5689 5690 5692 5693 5694 5694 5695 5694 5693 5692 5692 5692 5690 5689 5687 5687 5685 5684 5684 5685 5689 5694 5699 5704 5708 5711 5716 5719 5722 5725 5730 5735 5740 5745 5750
5696 5695 5693 5692 5691 5690 5690 5689 5689 5690 5691 5693 5695 5695 5695 5695 5695 5694 5695 5695 5694 5694 5693 5691 5690 5689 5689 5688 5692 5697 5702 5707 5710 5714 5718 5721 5725 5728 5734 5739 5743 5748 5751
5696 5695 5693 5692 5691 5690 5689 5688 5689 5689 5691 5693 5695 5696 5697 5697 5697 5698 5698 5699 5697 5698 5698 5697 5698 5696 5695 5696 5697 5701 5706 5709 5713 5717 5720 5723 5727 5732 5737 5740 5745 5749 5753
5695 5694 5693 5692 5691 5689 5689 5689 5689 5689 5691 5693 5695 5697 5698 5699 5700 5701 5702 5701 5702 5702 5703 5703 5704 5705 5705 5705 5704 5707 5712 5716 5719 5723 5726 5730 5734 5737 5741 5746 5749 5752 5756
5695 5695 5694 5693 5691 5689 5689 5690 5690 5689 5690 5694 5696 5698 5700 5701 5702 5703 5704 5704 5705 5705 5706 5707 5709 5712 5712 5713 5715 5717 5719 5723 5726 5729 5732 5736 5739 5742 5747 5750 5753 5755 5759
5695 5696 5696 5695 5693 5692 5691 5690 5690 5689 5690 5693 5697 5699 5702 5703 5704 5705 5706 5706 5707 5707 5710 5711 5713 5716 5719 5720 5723 5724 5725 5728 5731 5734 5737 5740 5744 5748 5750 5753 5756 5759 5760
5697 5698 5698 5697 5697 5695 5693 5691 5691 5692 5693 5695 5698 5701 5704 5706 5706 5707 5708 5709 5710 5711 5713 5715 5717 5720 5723 5725 5728 5730 5731 5733 5737 5739 5742 5745 5748 5751 5753 5756 5758 5760 5762
5698 5699 5699 5699 5699 5698 5696 5694 5695 5695 5696 5698 5701 5704 5706 5708 5709 5710 5712 5713 5715 5716 5718 5720 5722 5725 5728 5731 5734 5737 5739 5741 5743 5745 5746 5748 5750 5753 5756 5758 5760 5762 5763
5699 5701 5701 5701 5702 5702 5700 5698 5699 5699 5700 5702 5704 5707 5708 5710 5712 5713 5715 5719 5720 5721 5723 5725 5728 5730 5732 5735 5737 5740 5742 5744 5745 5746 5748 5750 5752 5754 5757 5758 5760 5762 5763
5700 5702 5704 5703 5704 5705 5705 5704 5704 5704 5704 5706 5708 5710 5712 5713 5715 5717 5719 5723 5725 5727 5729 5731 5732 5734 5736 5738 5740 5741 5743 5745 5746 5748 5750 5752 5753 5755 5756 5757 5759 5760 5761
5700 5703 5704 5706 5707 5709 5709 5709 5709 5710 5711 5712 5713 5715 5717 5719 5720 5721 5724 5726 5728 5729 5731 5733 5735 5736 5738 5740 5742 5744 5746 5748 5749 5751 5752 5753 5754 5756 5757 5757 5758 5758 5758
5697 5701 5704 5706 5708 5711 5712 5713 5714 5714 5716 5718 5719 5720 5722 5723 5725 5727 5729 5730 5731 5732 5733 5734 5736 5738 5740 5742 5744 5746 5748 5750 5751 5752 5753 5754 5755 5755 5755 5755 5755 5755 5754
5698 5700 5702 5706 5708 5710 5713 5714 5716 5717 5719 5721 5723 5725 5726 5727 5728 5730 5731 5732 5734 5735 5736 5737 5738 5739 5741 5743 5745 5746 5748 5749 5750 5751 5751 5752 5752 5752 5752 5753 5753 5752 5751
5698 5699 5702 5703 5707 5709 5711 5714 5716 5718 5720 5722 5724 5726 5728 5729 5730 5731 5732 5733 5734 5735 5736 5737 5738 5739 5741 5741 5743 5745 5746 5746 5747 5748 5749 5750 5750 5750 5750 5749 5749 5748 5746
5696 5698 5700 5702 5704 5706 5709 5711 5714 5716 5719 5721 5723 5725 5727 5729 5730 5731 5732 5733 5734 5735 5736 5737 5737 5738 5739 5740 5742 5743 5744 5744 5745 5745 5745 5745 5746 5746 5745 5744 5743 5742 5741
5691 5694 5697 5700 5703 5705 5707 5709 5711 5713 5714 5717 5720 5722 5725 5726 5728 5729 5730 5731 5732 5733 5734 5735 5736 5736 5737 5737 5738 5738 5740 5740 5740 5740 5741 5741 5740 5740 5739 5739 5738 5737 5735
5686 5690 5693 5696 5699 5701 5704 5706 5707 5709 5711 5713 5715 5716 5719 5722 5723 5725 5725 5727 5728 5729 5731 5732 5732 5732 5732 5733 5733 5733 5734 5734 5733 5734 5734 5733 5733 5733 5732 5732 5732 5731 5729
5680 5684 5688 5692 5695 5697 5699 5700 5702 5704 5706 5707 5709 5711 5712 5714 5716 5718 5719 5720 5721 5723 5725 5726 5726 5727 5727 5727 5727 5727 5727 5727 5727 5726 5726 5726 5725 5724 5723 5722 5721 5720 5719
5671 5675 5679 5684 5687 5690 5692 5695 5697 5700 5702 5704 5706 5707 5707 5709 5710 5710 5710 5712 5713 5715 5715 5717 5718 5719 5719 5720 5720 5720 5720 5719 5719 5717 5716 5716 5717 5716 5715 5713 5712 5711 5710